Location: Newark
(43.0000°N, 1.6781°W)
Time: 06:33:37
(UTC+00:00)

Vanguard 1 - Pass Details

Date: 08 December 2021
Orbit: 652 x 3830 km, 34.2° (Epoch: 16 January)

Event Time Altitude Azimuth Distance (km) Brightness Sun altitude
Rises 23:26:09 0° 240° (WSW) 6,781 14.3 -68.6°
Enters shadow 23:28:18 - 239° (WSW) 6,402 14.1 -68.8°
Exits shadow 00:09:14 18° 93° (E) 5,834 13.9 -69.6°
Drops below altitude 10° 00:12:29 10° 91° (E) 6,349 14.1 -69.5°
Sets 00:16:49 0° 88° (E) 7,083 14.5 -69.4°
